[[{"header":{"parameterUnit":"m.s-1","parameterCategory":1,"la1":30.2991,"la2":30.254,"lo1":-89.0895,"lo2":-89.0444,"dy":0.0017,"dx":0.0017,"nx":28,"ny":28,"refTime":"2024-10-03T03:00:00:Z","depth":0,"parameterNumber":2,"parameterNumberName":"U-component_of_WINDS"},"data":[0,0,0,0,0,0,0,0,0,0,0,0,0,0,0,0,0,0,0,0,0,0,0,0,0,0,0,0,0,0,0,0,0,0,0,0,0,0,0,0,0,0,0,0,0,0,0,0,0,0,0,0,0,0,0,0,0,0,-4.5305,-4.5305,0,-4.5294,-4.5294,-4.5294,-4.5183,-4.5181,-4.5178,-4.5175,-4.5163,-4.5165,-4.5167,0,0,0,0,0,0,0,0,0,0,0,0,0,-4.5231,-4.5233,-4.5305,-4.5305,-4.5305,-4.5294,-4.5294,-4.5294,-4.5184,-4.518,-4.5177,-4.5174,-4.5162,-4.5165,-4.5168,0,0,0,0,0,0,0,0,0,0,0,0,0,-4.5246,-4.5234,-4.5306,-4.5249,-4.5244,-4.5295,-4.5294,-4.5294,-4.5185,-4.518,-4.5176,-4.5172,-4.5161,-4.5165,-4.5168,-4.5272,0,0,-4.5178,-4.518,0,0,0,0,0,0,0,0,-4.5245,-4.5249,-4.5257,-4.5253,-4.5247,-4.5236,-4.5263,-4.5287,-4.5186,-4.5207,-4.5175,-4.517,-4.5191,-4.5191,-4.5198,-4.5271,-4.5271,-4.5179,-4.5181,-4.5182,-4.5183,0,0,0,0,0,0,0,-4.5244,-4.5249,-4.5301,-4.5258,-4.5251,-4.5224,-4.5222,-4.5267,-4.5222,-4.5205,-4.5197,-4.5197,-4.5187,-4.5195,-4.5197,-4.5271,-4.5178,-4.5181,-4.5184,-4.5185,-4.5431,-4.5435,0,0,0,0,0,0,-4.5251,-4.5249,-4.5301,-4.5301,-4.5236,-4.5229,-4.5226,-4.5244,-4.5221,-4.5214,-4.5201,-4.5192,-4.5192,-4.5193,-4.5196,-4.5319,-4.5182,-4.5185,-4.5187,-4.5427,-4.5432,-4.5437,0,0,0,0,0,0,-4.525,-4.5257,-4.5302,-4.5273,-4.5276,-4.5234,-4.5255,-4.5246,-4.5254,-4.5218,-4.5209,-4.5217,-4.5188,-4.5192,-4.5255,-4.5317,-4.5187,-4.519,-4.5421,-4.5428,-4.5434,-4.5563,0,0,0,0,0,0,-4.5248,-4.5257,-4.5296,-4.5274,-4.5278,-4.5361,-4.5259,-4.5249,-4.526,-4.5249,-4.5232,-4.5225,-4.5185,-4.525,-4.5258,-4.5319,-4.5192,-4.5415,-4.5424,-4.5432,-4.5553,-4.5573,-4.5591,0,0,0,0,0,-4.5246,-4.5332,-4.5299,-4.5306,-4.5326,-4.5364,-4.5367,-4.532,-4.5266,-4.5305,-4.5282,-4.5225,-4.5308,-4.5258,-4.5265,-4.5328,-4.5411,-4.5422,-4.5432,-4.5545,-4.5569,-4.559,0,0,0,0,0,0,-4.5361,-4.5328,-4.5291,-4.5372,-4.5372,-4.5346,-4.5393,-4.5347,-4.5362,-4.535,-4.5291,-4.5288,-4.5361,-4.535,-4.5294,-4.5429,-4.535,-4.5362,-4.5433,-4.5457,-4.5475,-4.5477,-4.5195,0,0,0,0,0,-4.5396,-4.5431,-4.5399,-4.5474,-4.5476,-4.5435,-4.545,-4.5414,-4.5412,-4.5411,-4.5392,-4.5392,-4.5418,-4.5436,-4.5458,-4.5551,-4.5546,-4.5598,-4.5617,-4.5632,-4.5644,-4.5695,-4.5718,-4.547,-4.547,-4.547,0,0,-4.5469,-4.5455,-4.548,-4.5497,-4.5493,-4.553,-4.5436,-4.5478,-4.5506,-4.5417,-4.5476,-4.5463,-4.5459,-4.5538,-4.5572,-4.5531,-4.5712,-4.5645,-4.5658,-4.5661,-4.5708,-4.5731,-4.5752,-4.5477,-4.5476,-4.5475,0,0,-4.562,-4.5612,-4.5675,-4.5673,-4.5669,-4.5641,-4.5656,-4.5638,-4.5626,-4.5684,-4.5619,-4.5651,-4.5696,-4.5697,-4.5703,-4.5857,-4.5806,-4.5865,-4.5964,-4.6014,-4.6034,-4.6051,-4.6108,-4.6129,-4.5877,-4.5877,-4.5878,0,-4.571,-4.5764,-4.5713,-4.5761,-4.5771,-4.5694,-4.5758,-4.5758,-4.5761,-4.577,-4.5724,-4.5782,-4.5773,-4.5852,-4.589,-4.5897,-4.5914,-4.5868,-4.6035,-4.6052,-4.6067,-4.6121,-4.6142,-4.5885,-4.5884,-4.5883,-4.5882,0,-4.5877,-4.5916,-4.5967,-4.5973,-4.5989,-4.6044,-4.6002,-4.6024,-4.5987,-4.5965,-4.6027,-4.6014,-4.6033,-4.6049,-4.6012,-4.6124,-4.6099,-4.6046,-4.5966,-4.6099,-4.6149,-4.6169,-4.5895,-4.5893,-4.589,-4.5889,0,0,-4.61,-4.6079,-4.6099,-4.6102,-4.6092,-4.6121,-4.6173,-4.6193,-4.6214,-4.6219,-4.6263,-4.6304,-4.6255,-4.6262,-4.6225,-4.6269,-4.6395,-4.621,-4.6209,-4.6247,-4.652,-4.6562,-4.6586,-4.6361,-4.6365,-4.6367,-4.6521,0,-4.6248,-4.6338,-4.6294,-4.6389,-4.6425,-4.6353,-4.6399,-4.6398,-4.6379,-4.6407,-4.6385,-4.6417,-4.6348,-4.6353,-4.6392,-4.6372,-4.6449,-4.6359,-4.6402,-4.6404,-4.6408,-4.6612,-4.6656,-4.6801,-4.654,-4.6543,-4.6545,0,-4.6432,-4.6447,-4.6546,-4.6532,-4.6546,-4.6588,-4.6604,-4.6631,-4.6629,-4.6612,-4.6622,-4.6575,-4.6626,-4.6546,-4.6617,-4.6557,-4.6572,-4.6564,-4.6569,-4.6572,-4.6484,-4.6623,-4.6846,-4.6869,-4.6575,-4.6573,-4.657,0,-4.6588,-4.6632,-4.6698,-4.6703,-4.6687,-4.6719,-4.6714,-4.6708,-4.6724,-4.6737,-4.6747,-4.6765,-4.6776,-4.6792,-4.6753,-4.6698,-4.683,-4.6746,-4.6819,-4.682,-4.6851,-4.685,-4.7082,-4.6858,-4.6857,-4.6857,-4.6856,0,-4.6759,-4.6823,-4.6769,-4.6809,-4.688,-4.6829,-4.69,-4.6887,-4.6882,-4.692,-4.6857,-4.6894,-4.6838,-4.6869,-4.6838,-4.6903,-4.6907,-4.6896,-4.6887,-4.6903,-4.6905,-4.6913,-4.6903,-4.6862,-4.6861,-4.686,-4.6859,0,-4.6945,-4.6911,-4.6979,-4.6959,-4.6956,-4.7009,-4.6992,-4.703,-4.7006,-4.7055,-4.7063,-4.7027,-4.7061,-4.7022,-4.7052,-4.7031,-4.712,-4.7095,-4.7121,-4.7115,-4.7191,-4.7185,-4.7438,-4.7469,-4.7223,-4.7225,-4.7227,0,-4.7058,-4.7106,-4.7093,-4.7114,-4.7113,-4.7147,-4.7163,-4.7115,-4.7135,-4.7138,-4.7175,-4.7203,-4.7224,-4.7281,-4.7257,-4.728,-4.7257,-4.7344,-4.726,-4.7275,-4.7261,-4.726,-4.7265,-4.7362,-4.7365,-4.7367,-4.7369,0,-4.7261,-4.7243,-4.7269,-4.729,-4.7311,-4.7325,-4.7334,-4.7355,-4.7305,-4.733,-4.7364,-4.738,-4.7412,-4.7442,-4.7458,-4.7453,-4.7404,-4.7396,-4.7414,-4.7431,-4.7446,-4.7441,-4.717,-4.739,-4.7388,-4.7387,-4.7385,-4.7385,-4.7415,-4.7456,-4.7454,-4.7486,-4.7488,-4.7498,-4.7533,-4.7516,-4.7544,-4.7566,-4.7536,-4.7579,-4.7577,-4.7595,-4.7596,-4.7629,-4.7592,-4.7618,-4.7625,-4.7633,-4.7645,-4.7439,-4.7631,-4.7631,-4.763,-4.763,-4.7629,0,-4.7618,-4.7614,-4.7643,-4.7659,-4.7685,-4.7637,-4.7644,-4.7669,-4.7708,-4.7711,-4.7733,-4.7774,-4.7803,-4.7782,-4.7807,-4.7838,-4.7816,-4.7846,-4.7844,-4.7844,-4.7676,-4.7659,-4.7863,-4.7863,-4.7863,-4.7863,-4.7863,-4.7863,-4.7727,-4.7794,-4.7775,-4.7843,-4.7838,-4.7881,-4.789,-4.79,-4.7902,-4.7951,-4.7975,-4.7961,-4.7956,-4.7979,-4.8004,-4.7997,-4.801,-4.8049,-4.8035,-4.7878,-4.7856,-4.7834,-4.7817,-4.8052,-4.8052,-4.82,-4.8202,-4.8203]},{"header":{"parameterUnit":"m.s-1","parameterCategory":1,"la1":30.2991,"la2":30.254,"lo1":-89.0895,"lo2":-89.0444,"dy":0.0017,"dx":0.0017,"nx":28,"ny":28,"refTime":"2024-10-03T03:00:00:Z","depth":0,"parameterNumber":3,"parameterNumberName":"V-component_of_WINDS"},"data":[0,0,0,0,0,0,0,0,0,0,0,0,0,0,0,0,0,0,0,0,0,0,0,0,0,0,0,0,0,0,0,0,0,0,0,0,0,0,0,0,0,0,0,0,0,0,0,0,0,0,0,0,0,0,0,0,0,0,-2.0339,-2.034,0,-2.0401,-2.0401,-2.0402,-2.0371,-2.0369,-2.0367,-2.0366,-2.0431,-2.0434,-2.0437,0,0,0,0,0,0,0,0,0,0,0,0,0,-2.0197,-2.0199,-2.0339,-2.034,-2.0341,-2.04,-2.0401,-2.0402,-2.0371,-2.0369,-2.0367,-2.0365,-2.043,-2.0434,-2.0438,0,0,0,0,0,0,0,0,0,0,0,0,0,-2.0258,-2.02,-2.0339,-2.0332,-2.0332,-2.04,-2.0401,-2.0402,-2.0371,-2.0369,-2.0367,-2.0364,-2.0429,-2.0433,-2.0438,-2.0517,0,0,-2.0453,-2.0455,0,0,0,0,0,0,0,0,-2.0255,-2.0264,-2.0333,-2.0333,-2.0333,-2.0375,-2.0375,-2.0441,-2.0372,-2.0357,-2.0366,-2.0363,-2.0415,-2.0421,-2.0438,-2.052,-2.0523,-2.0454,-2.0457,-2.0459,-2.046,0,0,0,0,0,0,0,-2.0251,-2.0261,-2.0364,-2.0334,-2.0334,-2.0327,-2.0333,-2.0387,-2.0399,-2.0358,-2.0356,-2.0363,-2.0414,-2.0433,-2.0439,-2.0524,-2.0453,-2.0458,-2.0461,-2.0463,-2.0675,-2.0677,0,0,0,0,0,0,-2.0247,-2.0258,-2.0362,-2.0365,-2.0287,-2.0331,-2.0338,-2.0364,-2.0398,-2.0401,-2.0365,-2.0362,-2.0426,-2.0433,-2.0441,-2.0536,-2.0459,-2.0463,-2.0466,-2.0672,-2.0676,-2.0678,0,0,0,0,0,0,-2.0244,-2.0256,-2.0359,-2.0311,-2.0323,-2.0336,-2.0366,-2.0367,-2.0385,-2.0404,-2.0406,-2.0382,-2.0424,-2.0434,-2.0498,-2.0538,-2.0465,-2.047,-2.0669,-2.0673,-2.0677,-2.0727,0,0,0,0,0,0,-2.024,-2.0255,-2.0285,-2.0312,-2.0326,-2.0415,-2.0368,-2.037,-2.0394,-2.0389,-2.042,-2.0423,-2.0423,-2.0491,-2.0503,-2.0544,-2.0474,-2.0666,-2.0671,-2.0676,-2.0722,-2.0733,-2.0742,0,0,0,0,0,-2.0235,-2.0297,-2.0287,-2.0299,-2.0364,-2.0418,-2.0426,-2.0424,-2.0397,-2.0427,-2.0439,-2.0422,-2.0531,-2.0498,-2.0511,-2.0554,-2.0663,-2.0669,-2.0675,-2.0718,-2.0731,-2.0741,0,0,0,0,0,0,-2.0276,-2.0301,-2.0289,-2.0362,-2.0388,-2.0412,-2.0451,-2.0438,-2.0473,-2.0467,-2.0464,-2.0472,-2.0539,-2.0552,-2.0515,-2.0632,-2.0593,-2.0602,-2.0621,-2.0633,-2.0643,-2.0639,-2.0478,0,0,0,0,0,-2.0293,-2.0334,-2.0354,-2.0416,-2.043,-2.0438,-2.0461,-2.0458,-2.0485,-2.0496,-2.0512,-2.0539,-2.058,-2.0607,-2.0645,-2.0723,-2.073,-2.0759,-2.0768,-2.0776,-2.0785,-2.0828,-2.0841,-2.0698,-2.0698,-2.0698,0,0,-2.033,-2.0348,-2.0375,-2.0425,-2.0445,-2.0488,-2.0447,-2.0495,-2.0528,-2.0503,-2.0565,-2.0578,-2.0608,-2.068,-2.0712,-2.0693,-2.0825,-2.0784,-2.079,-2.0795,-2.0836,-2.0849,-2.0861,-2.0703,-2.0702,-2.0701,0,0,-2.0419,-2.0437,-2.0491,-2.0511,-2.0541,-2.0546,-2.0559,-2.0585,-2.0593,-2.0654,-2.0637,-2.0675,-2.0745,-2.0768,-2.0788,-2.0885,-2.0871,-2.0898,-2.0949,-2.0991,-2.1002,-2.1012,-2.1048,-2.1061,-2.0906,-2.0906,-2.0906,0,-2.0462,-2.0526,-2.0521,-2.057,-2.0593,-2.0572,-2.0627,-2.0647,-2.0688,-2.0705,-2.0682,-2.077,-2.0789,-2.0866,-2.0889,-2.0906,-2.0922,-2.0895,-2.1001,-2.1011,-2.102,-2.1054,-2.1068,-2.0909,-2.0909,-2.0908,-2.0908,0,-2.0577,-2.0622,-2.0662,-2.0702,-2.0729,-2.0781,-2.0784,-2.0813,-2.0806,-2.0814,-2.0877,-2.0898,-2.0941,-2.0959,-2.0953,-2.1035,-2.1023,-2.1001,-2.0962,-2.1037,-2.1069,-2.1082,-2.0914,-2.0912,-2.0912,-2.0911,0,0,-2.0696,-2.0731,-2.0746,-2.0764,-2.0795,-2.083,-2.0881,-2.0921,-2.0946,-2.0975,-2.1018,-2.1077,-2.1057,-2.1081,-2.1077,-2.1114,-2.1191,-2.1087,-2.1088,-2.1107,-2.1283,-2.1301,-2.1316,-2.118,-2.1183,-2.1185,-2.1281,0,-2.0789,-2.0878,-2.0874,-2.0958,-2.0999,-2.0979,-2.1024,-2.1048,-2.1056,-2.1092,-2.1101,-2.1144,-2.1113,-2.1127,-2.1162,-2.1174,-2.1226,-2.1167,-2.1222,-2.1224,-2.1217,-2.1333,-2.1352,-2.1442,-2.1294,-2.1296,-2.1297,0,-2.0909,-2.0942,-2.1029,-2.1053,-2.1071,-2.1111,-2.1148,-2.1183,-2.121,-2.1213,-2.1239,-2.1229,-2.1282,-2.124,-2.1312,-2.1272,-2.1294,-2.1303,-2.1307,-2.1313,-2.1267,-2.1344,-2.147,-2.1485,-2.1317,-2.1315,-2.1314,0,-2.0989,-2.1054,-2.1115,-2.113,-2.116,-2.1189,-2.1203,-2.1227,-2.1252,-2.1284,-2.13,-2.1338,-2.136,-2.139,-2.1392,-2.1361,-2.1465,-2.1423,-2.1471,-2.1471,-2.1495,-2.1494,-2.1629,-2.1507,-2.1507,-2.1506,-2.1506,0,-2.1095,-2.1149,-2.1151,-2.1189,-2.1249,-2.1245,-2.1305,-2.1316,-2.1338,-2.1378,-2.1362,-2.14,-2.1398,-2.1437,-2.1438,-2.1499,-2.1508,-2.1513,-2.1513,-2.1516,-2.1516,-2.1532,-2.1526,-2.151,-2.1509,-2.1508,-2.1508,0,-2.1195,-2.1198,-2.1264,-2.1286,-2.1293,-2.1336,-2.1356,-2.1392,-2.1397,-2.1448,-2.146,-2.147,-2.1514,-2.1518,-2.157,-2.157,-2.1644,-2.1637,-2.1635,-2.1635,-2.1682,-2.1678,-2.1834,-2.1854,-2.1717,-2.1719,-2.172,0,-2.1263,-2.1304,-2.1331,-2.1356,-2.1371,-2.1412,-2.1437,-2.1433,-2.146,-2.1493,-2.1526,-2.1568,-2.1603,-2.1675,-2.1687,-2.1727,-2.1721,-2.1773,-2.1727,-2.1728,-2.1724,-2.1722,-2.1727,-2.1782,-2.1784,-2.1785,-2.1786,0,-2.1383,-2.1383,-2.1419,-2.1456,-2.1486,-2.1515,-2.1542,-2.1563,-2.1563,-2.1594,-2.1639,-2.1666,-2.1718,-2.1761,-2.18,-2.1815,-2.1801,-2.18,-2.1813,-2.1817,-2.1815,-2.1818,-2.1661,-2.1797,-2.1796,-2.1795,-2.1794,-2.1794,-2.1471,-2.1507,-2.1531,-2.1572,-2.1591,-2.1617,-2.1652,-2.1662,-2.1699,-2.1741,-2.1736,-2.1787,-2.1812,-2.1863,-2.188,-2.192,-2.1903,-2.1922,-2.1927,-2.1932,-2.1937,-2.1807,-2.1927,-2.1926,-2.1926,-2.1926,-2.1926,0,-2.1591,-2.1606,-2.1643,-2.1681,-2.1713,-2.1696,-2.1725,-2.1753,-2.1797,-2.1822,-2.1855,-2.1907,-2.1949,-2.1964,-2.2004,-2.2033,-2.2028,-2.2044,-2.2043,-2.2047,-2.195,-2.1935,-2.2048,-2.2048,-2.2048,-2.2048,-2.2048,-2.2048,-2.1658,-2.1719,-2.1721,-2.1791,-2.1804,-2.1853,-2.1871,-2.1895,-2.1914,-2.1973,-2.2007,-2.2016,-2.2037,-2.2079,-2.2116,-2.2119,-2.2136,-2.2155,-2.2156,-2.2066,-2.2053,-2.2042,-2.2028,-2.2158,-2.2158,-2.225,-2.225,-2.2251]}]]